This demonstration page uses our WeatherBlox Daily Observations layout. Learn more.

Left ArrowRight Arrow

Hourly Observations for May 24, 2020

Temp ( °F °C ) Dew Point ( °F °C ) Humidity (%) Winds ( mph kmh ) Pressure ( in mb ) Visibility ( mi km ) Precip ( " mm )
12:15 am 00:15 Clear 71 21.5 65 18.2 82 82 SSE 21 33 29.58 1002 10 16.0934 0 0
12:35 am 00:35 Clear 70 21.3 65 18.2 83 83 SSE 16 26 29.58 1002 10 16.0934 0 0
12:55 am 00:55 Clear 69 20.8 64 18 84 84 SSE 15 24 29.59 1002 10 16.0934 0 0
1:15 am 01:15 Clear 69 20.5 64 18 86 86 SSE 13 20 29.58 1002 10 16.0934 0 0
1:35 am 01:35 Clear with Nearby Thunderstorms 68 20 64 17.8 87 87 SSE 10 17 29.6 1002 10 16.0934 0 0
1:55 am 01:55 Clear 67 19.6 64 17.6 88 88 SSE 8 13 29.61 1003 10 16.0934 0 0
2:15 am 02:15 Partly Cloudy 64 17.8 57 14.1 79 79 NNE 10 17 29.7 1006 10 16.0934 0 0
2:35 am 02:35 Cloudy 60 15.8 55 12.9 83 83 N 22 35 29.72 1007 10 16.0934 0 0
2:55 am 02:55 Cloudy 60 15.5 55 13 85 85 NNE 18 30 29.74 1007 10 16.0934 0 0
3:15 am 03:15 Cloudy with Light Rain 59 15 55 13 88 88 NE 17 28 29.73 1007 10 16.0934 0 0
3:35 am 03:35 Cloudy 58 14.7 55 13 90 90 NE 16 26 29.74 1007 10 16.0934 0 0
3:55 am 03:55 Mostly Cloudy 58 14.5 55 12.9 90 90 NE 13 20 29.74 1007 10 16.0934 0 0
4:15 am 04:15 Partly Cloudy 58 14.2 55 12.9 92 92 NE 10 17 29.75 1007 10 16.0934 0 0
4:35 am 04:35 Clear 57 14 55 12.7 92 92 NE 7 11 29.75 1007 10 16.0934 0 0
4:55 am 04:55 Clear 56 13.6 55 12.5 93 93 NNE 7 11 29.75 1007 10 16.0934 0 0
5:15 am 05:15 Clear 56 13.5 55 12.5 94 94 N 7 11 29.75 1008 10 16.0934 0 0
5:35 am 05:35 Clear 56 13.2 54 12.3 94 94 NE 7 11 29.74 1007 10 16.0934 0 0
5:55 am 05:55 Clear 56 13.1 54 12.2 94 94 NNE 6 9 29.76 1008 10 16.0934 0 0
6:15 am 06:15 Partly Cloudy 55 12.9 54 12.1 95 95 N 5 7 29.77 1008 10 16.0934 0 0
6:35 am 06:35 Mostly Cloudy 56 13.4 55 12.5 94 94 NNE 5 7 29.78 1009 10 16.0934 0 0
6:55 am 06:55 Cloudy 57 14 55 12.7 92 92 NNE 5 7 29.79 1009 10 16.0934 0 0
7:15 am 07:15 Cloudy 57 14 55 12.8 93 93 NNE 5 7 29.8 1009 10 16.0934 0 0
7:35 am 07:35 Partly Cloudy 58 14.2 55 13 93 93 NNE 6 9 29.79 1009 10 16.0934 0 0
7:55 am 07:55 Partly Cloudy 58 14.5 55 13 91 91 NE 7 11 29.79 1009 10 16.0934 0 0
8:15 am 08:15 Partly Cloudy 60 15.3 56 13.3 88 88 N 10 17 29.8 1009 10 16.0934 0 0
8:35 am 08:35 Sunny 60 15.6 56 13.5 87 87 N 10 17 29.8 1009 10 16.0934 0 0
8:55 am 08:55 Mostly Cloudy 60 15.7 56 13.6 87 87 N 13 20 29.8 1009 10 16.0934 0 0
9:15 am 09:15 Mostly Cloudy 61 15.9 56 13.2 84 84 N 16 26 29.8 1009 10 16.0934 0 0
9:35 am 09:35 Cloudy 60 15.7 56 13.1 85 85 N 17 28 29.8 1009 10 16.0934 0 0
9:55 am 09:55 Cloudy 61 16.2 56 13.5 84 84 N 16 26 29.81 1009 10 16.0934 0 0
10:15 am 10:15 Cloudy 61 16.1 56 13.4 84 84 N 18 30 29.8 1009 10 16.0934 0 0
10:35 am 10:35 Cloudy 62 16.8 57 13.7 82 82 N 17 28 29.79 1009 10 16.0934 0 0
10:55 am 10:55 Cloudy 63 17 57 13.8 82 82 NNE 17 28 29.79 1009 10 16.0934 0 0
11:15 am 11:15 Cloudy 64 17.5 57 14 80 80 NNE 15 24 29.8 1009 10 16.0934 0 0
11:35 am 11:35 Cloudy 64 17.7 58 14.3 81 81 NNE 16 26 29.8 1009 10 16.0934 0 0
11:55 am 11:55 Cloudy 65 18.2 58 14.4 79 79 NNE 14 22 29.79 1009 10 16.0934 0 0
12:15 pm 12:15 Cloudy 65 18.5 58 14.5 78 78 NNE 13 20 29.8 1009 10 16.0934 0 0
12:35 pm 12:35 Cloudy 65 18.3 58 14.4 78 78 NNE 13 20 29.79 1009 10 16.0934 0 0
12:55 pm 12:55 Cloudy 65 18.5 58 14.5 78 78 NNE 13 20 29.79 1009 10 16.0934 0 0
1:15 pm 13:15 Cloudy 67 19.5 59 14.9 75 75 N 15 24 29.78 1009 10 16.0934 0 0
1:35 pm 13:35 Cloudy 67 19.3 58 14.6 74 74 NNE 17 28 29.77 1008 10 16.0934 0 0
1:55 pm 13:55 Partly Cloudy 69 20.5 59 15 71 71 N 17 28 29.75 1008 10 16.0934 0 0
2:15 pm 14:15 Partly Cloudy 70 21.1 59 15.2 69 69 N 16 26 29.74 1007 10 16.0934 0 0
2:35 pm 14:35 Partly Cloudy 71 21.4 60 15.3 68 68 N 17 28 29.75 1007 10 16.0934 0 0
2:55 pm 14:55 Mostly Cloudy 71 21.5 59 14.9 66 66 NE 17 28 29.76 1008 10 16.0934 0 0
3:15 pm 15:15 Mostly Cloudy 70 21.1 59 15.1 69 69 NE 10 17 29.76 1008 10 16.0934 0 0
3:35 pm 15:35 Cloudy 70 21 59 15.1 69 69 NE 13 20 29.75 1007 10 16.0934 0 0
3:55 pm 15:55 Cloudy 70 21.3 59 15.2 68 68 NE 12 19 29.75 1007 10 16.0934 0 0
4:15 pm 16:15 Cloudy 72 22.2 60 15.6 66 66 NE 14 22 29.73 1007 10 16.0934 0 0
4:35 pm 16:35 Partly Cloudy 72 22.4 60 15.7 66 66 NNE 13 20 29.73 1007 10 16.0934 0 0
4:55 pm 16:55 Partly Cloudy 73 22.6 60 15.3 64 64 NNE 14 22 29.73 1007 10 16.0934 0 0
5:15 pm 17:15 Mostly Cloudy 70 21.2 59 15.1 68 68 NNE 13 20 29.75 1007 10 16.0934 0 0
5:35 pm 17:35 Cloudy 71 21.5 60 15.4 68 68 NE 15 24 29.75 1007 10 16.0934 0 0
5:55 pm 17:55 Cloudy 70 21 60 15.4 70 70 NE 13 20 29.75 1007 10 16.0934 0 0
6:15 pm 18:15 Cloudy 69 20.8 59 15.2 70 70 NE 10 17 29.75 1007 10 16.0934 0 0
6:35 pm 18:35 Cloudy 69 20.6 61 16.1 76 76 ENE 10 17 29.75 1008 10 16.0934 0 0
6:55 pm 18:55 Cloudy 69 20.6 61 16 75 75 NE 12 19 29.74 1007 10 16.0934 0 0
7:15 pm 19:15 Cloudy 69 20.5 61 16.2 76 76 NE 10 17 29.75 1008 10 16.0934 0 0
7:35 pm 19:35 Cloudy 68 20 58 14.7 72 72 NNE 13 20 29.76 1008 10 16.0934 0 0
7:55 pm 19:55 Cloudy 68 20 58 14.7 72 72 NNE 14 22 29.75 1007 10 16.0934 0 0
8:15 pm 20:15 Cloudy 67 19.5 59 14.8 74 74 NNE 13 20 29.75 1008 10 16.0934 0 0
8:35 pm 20:35 Cloudy with Light Rain 65 18.6 60 15.3 81 81 NNE 10 17 29.77 1008 10 16.0934 0 0
8:55 pm 20:55 Cloudy 65 18.5 60 15.3 82 82 NNE 14 22 29.78 1008 10 16.0934 0 0
9:15 pm 21:15 Cloudy with Nearby Thunderstorms 65 18.5 59 15.1 81 81 NE 14 22 29.78 1008 10 16.0934 0 0
9:35 pm 21:35 Cloudy with Nearby Thunderstorms 65 18.2 59 15 82 82 NE 18 30 29.77 1008 10 16.0934 0 0
9:55 pm 21:55 Cloudy 64 17.6 59 15 85 85 NNE 18 30 29.77 1008 10 16.0934 0 0
10:15 pm 22:15 Cloudy 63 17.1 59 15 88 88 N 21 33 29.78 1009 10 16.0934 0 0
10:35 pm 22:35 Cloudy 63 17 59 14.8 87 87 NNE 23 37 29.79 1009 10 16.0934 0 0
10:55 pm 22:55 Cloudy 62 16.7 58 14.5 87 87 NNE 21 33 29.8 1009 10 16.0934 0 0
11:15 pm 23:15 Cloudy with Thunderstorms 61 16.3 58 14.2 87 87 NNE 18 30 29.81 1009 10 16.0934 0.01 0.254
11:35 pm 23:35 Cloudy 60 15.8 58 14.2 90 90 NE 18 30 29.81 1010 4 6.43736 0.13 3.302
11:55 pm 23:55 Windy with Storms Likely 60 15.6 58 14.5 93 93 NE 23 37 29.81 1010 7 11.26538 0.21 5.334

Powered by AerisWeather